RUSSARO Weather Reports


Display with metric or nautical units.
time (UTC)temp
F
wind
direction
speed
MPH
gust
MPH
rain 1hr
in
rain 24hr
in
rain mn
in
humidity
%
barometer
mb
20260507084727 47 107 14.0 15.0 0.00 0.00 0.00 58 1016.0
20260507082727 46 104 13.0 14.0 0.00 0.00 0.00 58 1016.1
20260507080726 46 94 14.0 17.0 0.00 0.00 0.00 56 1016.1
20260507074727 47 89 17.0 18.0 0.00 0.00 0.00 53 1016.1
20260507072727 46 79 14.0 15.0 0.00 0.00 0.00 54 1016.1
20260507070726 47 81 15.0 16.0 0.00 0.00 0.00 53 1016.1
20260507064727 47 76 14.0 16.0 0.00 0.00 0.00 51 1016.0
20260507062726 47 66 13.0 15.0 0.00 0.00 0.00 53 1015.9
20260507060726 45 69 13.0 14.0 0.00 0.00 0.00 55 1015.9
20260507054727 44 55 11.0 13.0 0.00 0.00 0.00 58 1015.7
20260507052726 44 58 12.0 13.0 0.00 0.00 0.00 57 1015.7
20260507050726 43 53 11.0 13.0 0.00 0.00 0.00 58 1015.6
20260507042725 41 42 11.0 13.0 0.00 0.00 0.00 58 1015.5
20260507040727 40 48 11.0 13.0 0.00 0.00 0.00 60 1015.5
20260507034727 39 53 12.0 14.0 0.00 0.00 0.00 64 1015.4
20260507032727 39 56 13.0 14.0 0.00 0.00 0.00 64 1015.2
20260507030727 38 53 13.0 14.0 0.00 0.00 0.00 64 1015.2
20260507024726 38 51 13.0 15.0 0.00 0.00 0.00 66 1015.2
20260507022726 38 56 13.0 15.0 0.00 0.00 0.00 69 1015.1
20260507020725 38 51 13.0 14.0 0.00 0.00 0.00 66 1015.1
20260507014726 38 51 13.0 15.0 0.00 0.00 0.00 69 1015.1
20260507012726 38 58 13.0 14.0 0.00 0.00 0.00 70 1015.1
20260507010725 38 58 13.0 15.0 0.00 0.00 0.00 66 1014.9
20260507004725 39 58 13.0 15.0 0.00 0.00 0.00 62 1014.9
20260507002726 39 50 14.0 15.0 0.00 0.00 0.00 63 1014.6
20260507000725 39 45 14.0 15.0 0.00 0.00 0.00 63 1014.6
20260506234726 39 49 14.0 15.0 0.00 0.00 0.00 64 1014.6
20260506232725 38 32 13.0 15.0 0.00 0.00 0.00 70 1014.6
20260506230727 39 29 13.0 15.0 0.00 0.00 0.00 69 1014.6
20260506224724 39 21 14.0 16.0 0.00 0.00 0.00 67 1014.7
20260506222725 40 8 13.0 17.0 0.00 0.00 0.00 63 1014.6
20260506220725 40 4 12.0 15.0 0.00 0.00 0.00 70 1014.6
20260506214725 40 356 12.0 14.0 0.00 0.00 0.00 66 1014.6
20260506212726 40 349 11.0 13.0 0.00 0.00 0.00 68 1014.5
20260506210725 41 346 11.0 13.0 0.00 0.00 0.00 71 1014.5
20260506204725 41 342 11.0 13.0 0.00 0.00 0.00 75 1014.5
20260506202725 42 331 11.0 13.0 0.00 0.00 0.00 69 1014.5
20260506200725 42 323 10.0 11.0 0.00 0.00 0.00 69 1014.6
20260506194725 42 316 10.0 11.0 0.00 0.00 0.00 68 1014.7
20260506192724 43 311 11.0 12.0 0.00 0.00 0.00 64 1014.7
20260506190724 43 310 11.0 12.0 0.00 0.00 0.00 60 1014.7
20260506184724 44 314 11.0 13.0 0.00 0.00 0.00 61 1014.6
20260506182725 44 305 11.0 13.0 0.00 0.00 0.00 60 1014.5
20260506180725 44 299 13.0 15.0 0.00 0.00 0.00 65 1014.5
20260506174725 45 291 15.0 16.0 0.00 0.00 0.00 64 1014.5
20260506172723 45 287 14.0 16.0 0.00 0.00 0.00 62 1014.6
20260506170724 46 287 16.0 17.0 0.00 0.00 0.00 67 1014.6
20260506164723 45 281 16.0 17.0 0.00 0.00 0.00 70 1014.6
20260506162724 45 283 16.0 17.0 0.00 0.00 0.00 69 1014.6
20260506160724 45 284 16.0 17.0 0.00 0.00 0.00 67 1014.6
20260506154724 46 282 17.0 19.0 0.00 0.00 0.00 66 1014.6
20260506152724 46 282 17.0 19.0 0.00 0.00 0.00 65 1014.7
20260506150723 46 283 19.0 21.0 0.00 0.00 0.00 60 1014.7
20260506144723 46 281 19.0 21.0 0.00 0.00 0.00 58 1014.9
20260506142723 46 277 19.0 21.0 0.00 0.00 0.00 57 1015.0
20260506140722 46 268 20.0 21.0 0.00 0.00 0.00 62 1015.0
20260506134723 46 265 20.0 22.0 0.00 0.00 0.00 60 1015.1
20260506132723 47 260 20.0 22.0 0.00 0.00 0.00 63 1015.2
20260506130722 47 257 19.0 21.0 0.00 0.00 0.00 62 1015.2
20260506124723 47 254 19.0 20.0 0.00 0.00 0.00 63 1015.1
20260506122723 47 253 19.0 20.0 0.00 0.00 0.00 69 1015.2
20260506120723 47 251 18.0 19.0 0.00 0.00 0.00 68 1015.2
20260506114723 47 253 19.0 20.0 0.00 0.00 0.00 69 1015.2
20260506112723 47 245 18.0 19.0 0.00 0.00 0.00 69 1015.2
20260506110723 46 238 18.0 20.0 0.00 0.00 0.00 73 1015.1
20260506104724 46 233 18.0 19.0 0.00 0.00 0.00 74 1015.2
20260506102724 46 233 18.0 19.0 0.00 0.00 0.00 79 1015.1
20260506100725 45 237 17.0 18.0 0.00 0.00 0.00 76 1015.0
20260506094725 45 232 14.0 16.0 0.00 0.00 0.00 79 1014.9
20260506092724 45 241 13.0 15.0 0.00 0.00 0.00 75 1014.6
20260506090724 48 264 12.0 13.0 0.00 0.00 0.00 64 1014.4